Monticello, AR

10:28 AM CST on February 23, 2018 (GMT -0600)
Monticello Municipal-Ellis

Weather History for KLLQ - October, 2013

Change the Weather History Date:

Friday, October 18, 2013

  Actual Average Record
Temperature  
Mean Temperature 60 °F -  
Max Temperature 72 °F 73 °F 93 °F (2005)
Min Temperature 48 °F 49 °F 28 °F (1978)
Degree Days  
Heating Degree Days 6    
Growing Degree Days 10 (Base 50)    
Moisture  
Dew Point 51 °F    
Average Humidity 75    
Maximum Humidity 93    
Minimum Humidity 49    
Precipitation  
Precipitation 0.00 in - - ()
Sea Level Pressure  
Sea Level Pressure 30.01 in    
Wind  
Wind Speed 1 mph (SSE)    
Max Wind Speed 5 mph    
Max Gust Speed -    
Visibility 10 miles    
Events Rain    
Averages and records for this station are not official NWS values.
T = Trace of Precipitation, MM = Missing Value Source: NWS Daily Summary

Daily Weather History Graph

Daily Weather History Graph

Search for Another Location

Airport or City:

Trip Planner

Search our weather history database for the weather conditions in past years. The results will help you decide how hot, cold, wet, or windy it might be!

Date:

Astronomy

Oct. 18, 2013 Rise Set
Actual Time 7:14 AM CDT 6:29 PM CDT
Civil Twilight 6:49 AM CDT 6:54 PM CDT
Nautical Twilight 6:20 AM CDT 7:23 PM CDT
Astronomical Twilight 5:51 AM CDT 7:52 PM CDT
Moon 6:20 PM CDT (10/18) 6:50 AM CDT (10/18)
Length of Visible Light 12h 05m
Length of Day
11h 14m
Full, 100% of the Moon is Illuminated
Oct 18
Full
Oct 18
Full
Oct 26
Last Quarter
Nov 3
New
Nov 9
First Quarter

Hourly Weather History & Observations

Time (CDT) Temp. Dew Point Humidity Pressure Visibility Wind Dir Wind Speed Gust Speed Precip Events Conditions
12:53 AM 51.1 °F 48.0 °F 89% 30.03 in 10.0 mi Calm Calm - N/A   Clear
1:53 AM 50.0 °F 48.0 °F 93% 30.03 in 10.0 mi Calm Calm - N/A   Clear
2:53 AM 48.9 °F 46.9 °F 93% 30.03 in 10.0 mi Calm Calm - N/A   Clear
3:53 AM 48.9 °F 46.9 °F 93% 30.03 in 10.0 mi Calm Calm - 0.00 in Rain Light Rain
4:53 AM 48.9 °F 46.9 °F 93% 30.03 in 10.0 mi Calm Calm - 0.00 in   Clear
5:53 AM 50.0 °F 46.9 °F 89% 30.04 in 10.0 mi Calm Calm - N/A   Clear
6:53 AM 50.0 °F 46.9 °F 89% 30.05 in 10.0 mi Calm Calm - 0.00 in   Clear
7:53 AM 50.0 °F 48.0 °F 93% 30.06 in 10.0 mi Calm Calm - N/A   Clear
8:53 AM 54.0 °F 50.0 °F 86% 30.07 in 10.0 mi Calm Calm - 0.00 in   Clear
9:53 AM 62.1 °F 53.1 °F 72% 30.09 in 10.0 mi SE 3.5 mph - 0.00 in   Clear
10:53 AM 66.0 °F 52.0 °F 60% 30.06 in 10.0 mi East 4.6 mph - 0.00 in   Clear
11:53 AM 66.9 °F 48.9 °F 52% 30.05 in 10.0 mi SSW 3.5 mph - N/A   Clear
12:53 PM 70.0 °F 50.0 °F 49% 30.02 in 10.0 mi Variable 3.5 mph - N/A   Clear
1:53 PM 71.1 °F 51.1 °F 49% 29.98 in 10.0 mi Variable 3.5 mph - N/A   Clear
2:53 PM 70.0 °F 50.0 °F 49% 29.96 in 10.0 mi Variable 4.6 mph - N/A   Clear
3:53 PM 70.0 °F 50.0 °F 49% 29.95 in 10.0 mi Calm Calm - N/A   Clear
4:53 PM 69.1 °F 51.1 °F 53% 29.97 in 10.0 mi South 4.6 mph - N/A   Mostly Cloudy
5:53 PM 66.9 °F 55.0 °F 66% 29.97 in 10.0 mi Calm Calm - 0.00 in   Partly Cloudy
6:53 PM 64.9 °F 57.9 °F 78% 29.97 in 10.0 mi Calm Calm - 0.00 in Rain Light Rain
7:53 PM 63.0 °F 59.0 °F 87% 29.99 in 10.0 mi Calm Calm - 0.00 in   Mostly Cloudy
8:53 PM 63.0 °F 55.9 °F 78% 29.99 in 10.0 mi Calm Calm - 0.00 in Rain Light Rain
9:53 PM 63.0 °F 55.9 °F 78% 29.99 in 10.0 mi Calm Calm - 0.00 in   Overcast
10:53 PM 62.1 °F 55.9 °F 80% 29.98 in 10.0 mi Calm Calm - 0.00 in Rain Light Rain
11:53 PM 60.1 °F 55.9 °F 86% 29.98 in 10.0 mi Calm Calm - 0.00 in   Partly Cloudy